Погода в Улан-Баторе

Монголия     47°55′06″N   106°55′03″E
темп.,
°C
ветер,
м/с
пор.,
м/с
влажн.,
%
обл.,
%
осадки,
мм/ч
давл.,
гПа
погр.,
м
10 августа, ср
ср1023:00+13с3588100 1.2 1011145
02:00+12вюв1191100 4.3 100937
05:00+12в1190100 0.3 100815
08:00+14юз1182100 0.3 1008182
11:00+18зсз236328 0.1 10061054
14:00+21зсз445347 0.3 10041585
17:00+21зсз445015 0.0 10041581
20:00+16ссз237444 0.3 100547
11 августа, чт
чт1123:00+13с228749 0.9 100715
02:00+12св008778 1.1 100710
05:00+11ссз229363 0.0 100926
08:00+13ссз359199 0.0 1010387
11:00+17сз4566100 0.0 1009900
14:00+18сз4456100 0.0 10091225
17:00+18сз3459100 0.0 1009946
20:00+14сз1179100 0.0 101011
12 августа, пт
пт1223:00+12ссв2288100 0.0 101113
02:00+11св2187100 0.0 101113
05:00+11всв1188100 0.0 101110
08:00+14вюв1173100 0.0 1010145
11:00+18зюз115185 0.0 10091004
14:00+21з334066 0.0 10061798
17:00+21зсз324080 0.0 10051723
20:00+16ссв226091 0.0 100613
13 августа, сб
сб1323:00+15всв2159100 0.0 100612
02:00+13юв1172100 0.2 100712
05:00+12в1174100 0.1 100511
08:00+14вюв1175100 0.5 1005103
11:00+16зюз3474100 0.8 1005443
14:00+17зюз2471100 3.5 1003294
17:00+17зюз2372100 2.4 1004136
20:00+13зюз2287100 3.6 100543
14 августа, вс
вс1423:00+11зюз1194100 1.1 100611
02:00+11сз119571 1.4 100615
05:00+10с2397100 0.0 100670
08:00+11ссз3593100 0.0 1007321
11:00+14сз4577100 0.0 1008599
14:00+18сз455395 0.0 10061359
17:00+18сз55540 0.0 10071174
20:00+13ссз22770 0.0 101021